Flag for Germany Weather past 2 weeks in Sondershausen, Thuringia, Germany

Now
61 °F

Light rain. Overcast.


Feels Like: 61 °F
Forecast: 50 / 64 °F
Wind: 9 mph from Northwest

Location: Erfurt-Bindersleben

Current Time: Sep 1, 2015 at 7:03:17 PM

Latest Report: Sep 1, 2015 at 6:00 PM


Visibility: 16 mi

Pressure: 29.86 "Hg

Humidity: 86%

Dew point: 57 °F

Location of SondershausenLocation

Historic Weather in Sondershausen — Graph

°F

Sondershausen temperature yesterday

Maximum temperature yesterday: 92 °F (at 4:00 PM)
Minimum temperature yesterday: 64 °F (at 7:00 AM)
Average temperature yesterday: 78 °F

Past Weeks' High & Low Weather Summary

 TemperatureHumidityPressure
High92 °F (Aug 31, 4:00 PM)100% (Aug 21, 3:00 AM)30.33 "Hg (Aug 21, 3:00 AM)
Low48 °F (Aug 21, 7:00 AM)31% (Aug 30, 5:00 PM)29.67 "Hg (Aug 24, 6:00 PM)
Average65 °F72%30.01 "Hg
* Reported Aug 17 6:00 PM — Sep 1 6:00 PM, Sondershausen, Weather by CustomWeather, © 2015

Note: Actual official high and low records may vary slightly from our data, if they occured in-between our weather recording intervals... More about our weather records

Advertising

Sondershausen weather history for previous 24 hours

 ConditionsComfort  
Time TempWeatherWind HumidityBarometerVisibility
6:00 PM
Tue, Sep 1
61 °FLight rain. Overcast.9 mph86%29.86 "Hg16 mi
5:00 PM67 °FOvercast.7 mph70%29.79 "Hg19 mi
4:00 PM74 °FOvercast.14 mph54%29.75 "Hg19 mi
3:00 PM78 °FOvercast.9 mph47%29.74 "Hg22 mi
2:00 PM81 °FOvercast.3 mph53%29.72 "Hg25 mi
1:00 PM78 °FPartly sunny.1 mph59%29.74 "Hg22 mi
12:00 PM76 °FMild.2 mph62%29.75 "HgN/A
11:00 AM75 °FPassing clouds.2 mph63%29.77 "Hg25 mi
10:00 AM72 °FPassing clouds.2 mph62%29.79 "Hg31 mi
9:00 AM71 °FScattered clouds.2 mph62%29.79 "Hg31 mi
8:00 AM66 °FPassing clouds.2 mph76%29.80 "Hg31 mi
7:00 AM65 °FPassing clouds.3 mph69%29.80 "Hg37 mi
5:00 AM68 °FPassing clouds.2 mph62%29.80 "Hg31 mi
4:00 AM69 °FClear.2 mph60%29.78 "Hg31 mi
3:00 AM69 °FClear.6 mph61%29.79 "Hg31 mi
2:00 AM68 °FClear.3 mph65%29.79 "Hg31 mi
1:00 AM70 °FClear.3 mph61%29.79 "Hg31 mi
11:00 PM
Mon, Aug 31
74 °FClear.5 mph54%29.80 "Hg43 mi
10:00 PM75 °FPassing clouds.5 mph51%29.80 "Hg47 mi
9:00 PM80 °FPassing clouds.1 mph40%29.79 "Hg47 mi
8:00 PM83 °FPassing clouds.3 mph37%29.78 "Hg47 mi
7:00 PM87 °FPassing clouds.6 mph37%29.78 "Hg47 mi
Weather by CustomWeather, © 2015

See weather overviewHow to use our weather pages